Temp
-3 -4 -4 -5 -5 -6 -6 -7 -7 -6 -5 -5 -6 -7 -8 -8 -7 -8 -8 -8 -8 -8 -8 -7 -7 -7 -7 -7 -7 -6 -8 -8 -7 -7 -7 -6 -6 -6
-4 -4 -5 -6 -6 -6 -7 -7 -8 -9 -7 -7 -7 -8 -9 -9 -9 -10 -10 -10 -9 -9 -8 -8 -8 -8 -8 -7 -7 -7 -7 -8 -8 -7 -7 -7 -6 -7
-5 -5 -6 -6 -6 -7 -8 -8 -8 -9 -9 -6 -8 -9 -9 -10 -10 -10 -10 -10 -10 -10 -10 -9 -9 -8 -8 -8 -8 -8 -8 -8 -8 -8 -7 -7 -7 -7
-5 -6 -6 -7 -7 -7 -8 -8 -9 -10 -11 -10 -8 -9 -10 -10 -10 -10 -11 -11 -11 -11 -11 -11 -10 -10 -9 -9 -9 -8 -8 -8 -8 -8 -7 -8 -7 -7
-6 -6 -7 -7 -7 -8 -9 -9 -10 -10 -11 -11 -10 -10 -10 -11 -11 -11 -11 -11 -12 -12 -12 -12 -11 -11 -10 -10 -10 -10 -9 -9 -8 -8 -8 -8 -7 -8
-6 -7 -7 -8 -8 -9 -9 -10 -10 -10 -11 -11 -12 -12 -12 -12 -13 -13 -13 -13 -14 -14 -14 -13 -13 -12 -12 -11 -12 -11 -11 -10 -9 -9 -9 -8 -8 -8
-6 -7 -8 -8 -9 -10 -10 -10 -11 -11 -11 -12 -12 -13 -13 -13 -14 -15 -15 -15 -15 -15 -15 -15 -15 -14 -13 -13 -13 -13 -12 -11 -11 -10 -9 -9 -8 -8
-7 -7 -8 -9 -10 -10 -11 -11 -12 -12 -13 -13 -13 -14 -14 -14 -15 -16 -16 -16 -16 -15 -16 -16 -16 -15 -14 -14 -14 -13 -13 -13 -12 -11 -11 -10 -9 -8
-7 -8 -9 -10 -11 -11 -11 -11 -12 -13 -14 -14 -15 -15 -15 -16 -16 -16 -16 -16 -16 -16 -16 -16 -16 -16 -15 -15 -14 -14 -14 -13 -13 -12 -11 -11 -10 -10
-8 -9 -10 -11 -11 -12 -12 -12 -13 -13 -14 -15 -15 -16 -16 -16 -16 -16 -16 -16 -16 -16 -17 -17 -16 -16 -16 -16 -15 -15 -14 -14 -13 -13 -12 -12 -11 -11
-9 -10 -11 -12 -12 -12 -13 -13 -13 -14 -15 -15 -16 -16 -16 -16 -16 -16 -16 -16 -16 -16 -16 -16 -16 -16 -16 -15 -15 -15 -15 -14 -14 -13 -13 -13 -12 -12
-10 -11 -12 -12 -13 -13 -14 -14 -14 -15 -16 -15 -16 -16 -16 -17 -17 -17 -17 -16 -16 -16 -16 -17 -17 -17 -16 -15 -15 -15 -15 -15 -15 -14 -14 -13 -13 -12
-11 -12 -12 -13 -13 -14 -14 -15 -16 -16 -16 -16 -16 -16 -16 -16 -17 -17 -17 -17 -16 -16 -16 -16 -16 -16 -16 -16 -15 -16 -15 -15 -15 -15 -14 -14 -13 -13
-12 -12 -13 -13 -13 -14 -15 -15 -15 -16 -16 -16 -16 -16 -16 -16 -16 -17 -17 -17 -17 -16 -16 -17 -16 -16 -16 -16 -15 -16 -16 -15 -15 -15 -15 -14 -14 -14
-13 -13 -13 -14 -14 -14 -15 -15 -15 -16 -16 -16 -16 -16 -16 -16 -16 -17 -17 -17 -17 -17 -17 -17 -16 -16 -16 -16 -16 -16 -16 -16 -16 -15 -15 -15 -14 -14
-13 -13 -13 -14 -14 -15 -15 -16 -16 -16 -16 -16 -16 -16 -16 -16 -16 -16 -16 -16 -16 -17 -17 -17 -17 -17 -17 -17 -16 -16 -16 -16 -16 -16 -15 -15 -15 -14
-13 -14 -14 -14 -14 -15 -15 -16 -16 -16 -16 -16 -16 -16 -16 -16 -17 -17 -17 -17 -17 -16 -17 -17 -17 -17 -17 -17 -16 -16 -16 -16 -16 -16 -16 -16 -15 -15
-14 -14 -14 -14 -14 -14 -15 -15 -16 -16 -16 -16 -16 -16 -16 -16 -16 -16 -16 -16 -16 -16 -16 -16 -16 -16 -16 -16 -16 -16 -16 -16 -16 -16 -16 -15 -15 -15
-14 -14 -14 -14 -14 -14 -15 -15 -15 -16 -16 -16 -16 -16 -16 -16 -16 -16 -16 -16 -16 -16 -16 -16 -16 -16 -16 -16 -16 -16 -16 -16 -16 -16 -16 -16 -16 -16
-14 -14 -14 -14 -14 -14 -15 -15 -15 -15 -15 -15 -15 -15 -15 -15 -16 -16 -16 -16 -16 -16 -16 -16 -16 -17 -16 -16 -16 -16 -16 -16 -16 -16 -16 -16 -16 -16
-14 -14 -14 -14 -14 -14 -15 -15 -15 -15 -15 -15 -15 -15 -15 -15 -15 -16 -16 -16 -16 -16 -16 -16 -16 -16 -16 -16 -16 -16 -16 -16 -16 -16 -16 -16 -16 -16
-14 -14 -14 -14 -14 -15 -15 -15 -15 -15 -15 -15 -15 -15 -15 -15 -15 -16 -16 -16 -16 -16 -16 -16 -16 -16 -16 -16 -16 -16 -16 -16 -16 -16 -16 -16 -16 -16
-14 -14 -14 -14 -15 -15 -15 -15 -15 -15 -15 -15 -15 -15 -15 -16 -16 -16 -16 -16 -16 -16 -16 -16 -16 -16 -16 -16 -16 -16 -16 -16 -16 -16 -16 -16 -16 -16
Height
3074 3071 3068 3064 3061 3057 3052 3047 3040 3032 3029 3030 3026 3024 3019 3014 3013 3010 3009 3007 3004 3001 2999 2997 2996 2994 2994 2993 2992 2990 2991 2991 2994 2996 2998 3002 3003 3008
3067 3064 3061 3057 3052 3048 3043 3037 3032 3026 3019 3020 3017 3012 3010 3006 3003 2998 2997 2996 2995 2993 2991 2988 2987 2985 2984 2984 2983 2982 2982 2983 2983 2985 2987 2990 2992 2997
3061 3056 3053 3048 3044 3039 3034 3028 3023 3016 3008 3008 3003 3001 2997 2993 2993 2990 2986 2984 2983 2983 2981 2979 2978 2976 2975 2974 2974 2974 2973 2974 2975 2976 2976 2979 2982 2985
3053 3048 3044 3039 3034 3029 3022 3016 3010 3005 2997 2991 2992 2987 2984 2981 2978 2975 2973 2971 2968 2969 2968 2968 2968 2966 2965 2964 2964 2964 2965 2965 2966 2967 2968 2970 2971 2975
3044 3039 3034 3029 3024 3018 3012 3006 3000 2994 2988 2981 2978 2975 2971 2967 2963 2960 2958 2956 2954 2953 2953 2954 2955 2955 2954 2953 2953 2954 2954 2955 2956 2957 2959 2961 2964 2965
3036 3030 3024 3017 3011 3005 2998 2993 2987 2983 2978 2973 2968 2963 2959 2957 2951 2947 2944 2942 2940 2940 2939 2941 2942 2942 2942 2942 2943 2943 2944 2944 2946 2947 2949 2951 2954 2956
3026 3020 3013 3007 3000 2994 2988 2983 2978 2972 2967 2961 2957 2952 2948 2944 2939 2937 2933 2932 2931 2931 2929 2930 2930 2931 2932 2933 2932 2933 2934 2934 2935 2936 2938 2940 2943 2946
3015 3009 3003 2997 2991 2985 2980 2974 2968 2961 2957 2950 2946 2941 2937 2933 2930 2927 2924 2923 2921 2923 2921 2921 2921 2920 2921 2921 2922 2923 2923 2924 2925 2926 2927 2929 2932 2935
3004 2998 2993 2987 2981 2975 2970 2965 2959 2953 2947 2941 2935 2932 2927 2926 2922 2919 2917 2914 2913 2913 2913 2912 2914 2911 2912 2912 2913 2913 2913 2914 2914 2915 2916 2917 2920 2924
2995 2988 2982 2977 2971 2965 2959 2954 2949 2943 2938 2932 2927 2923 2920 2918 2915 2912 2910 2907 2905 2905 2905 2902 2905 2903 2903 2903 2903 2903 2903 2903 2904 2905 2906 2907 2909 2912
2985 2979 2973 2967 2962 2955 2948 2942 2937 2932 2928 2924 2920 2917 2914 2911 2909 2906 2903 2901 2898 2898 2898 2896 2897 2894 2894 2894 2894 2893 2893 2893 2893 2895 2897 2898 2900 2902
2977 2971 2965 2959 2953 2947 2940 2932 2926 2921 2916 2913 2911 2908 2906 2903 2901 2898 2896 2894 2891 2888 2891 2889 2888 2886 2883 2884 2885 2885 2885 2885 2885 2884 2887 2889 2891 2892
2968 2963 2957 2950 2943 2937 2930 2923 2917 2911 2907 2903 2901 2898 2896 2894 2892 2890 2888 2886 2884 2882 2883 2880 2878 2878 2876 2873 2875 2876 2875 2876 2876 2876 2877 2880 2883 2884
2959 2954 2948 2942 2935 2928 2921 2915 2909 2903 2899 2895 2892 2890 2888 2885 2883 2881 2879 2877 2875 2874 2873 2871 2868 2869 2867 2866 2866 2867 2867 2867 2867 2869 2870 2871 2873 2876
2952 2946 2939 2933 2926 2920 2914 2908 2901 2895 2891 2888 2886 2883 2881 2879 2876 2874 2872 2869 2868 2867 2865 2863 2861 2861 2859 2859 2859 2860 2860 2861 2861 2862 2863 2864 2866 2868
2945 2939 2931 2926 2920 2915 2909 2902 2896 2890 2886 2883 2880 2878 2875 2873 2870 2867 2865 2863 2862 2861 2858 2857 2856 2855 2854 2854 2855 2855 2855 2855 2856 2856 2857 2859 2860 2862
2936 2931 2926 2921 2916 2911 2905 2898 2892 2888 2883 2880 2876 2874 2871 2868 2866 2863 2861 2859 2857 2856 2855 2854 2853 2852 2852 2852 2852 2851 2851 2851 2851 2851 2852 2853 2855 2855
2931 2926 2921 2917 2912 2906 2901 2897 2891 2886 2882 2878 2875 2872 2869 2866 2864 2862 2859 2857 2856 2854 2853 2852 2851 2850 2850 2850 2849 2849 2848 2848 2848 2848 2847 2848 2850 2850
2926 2922 2918 2913 2908 2904 2899 2896 2891 2886 2882 2878 2875 2872 2869 2866 2863 2861 2859 2857 2855 2853 2852 2850 2849 2849 2848 2847 2847 2846 2845 2844 2844 2843 2843 2843 2844 2845
2922 2918 2914 2910 2905 2902 2898 2894 2890 2886 2882 2879 2875 2872 2869 2866 2863 2861 2858 2856 2854 2853 2851 2850 2848 2847 2846 2845 2844 2843 2842 2840 2839 2838 2838 2838 2838 2839
2918 2915 2911 2907 2903 2900 2896 2893 2889 2886 2882 2879 2876 2873 2869 2866 2863 2861 2858 2856 2853 2852 2850 2848 2847 2846 2844 2843 2841 2840 2839 2837 2835 2834 2833 2833 2833 2833
2915 2912 2908 2904 2901 2898 2895 2892 2889 2886 2883 2879 2876 2872 2869 2866 2863 2860 2857 2855 2852 2850 2848 2846 2845 2843 2841 2840 2838 2836 2835 2833 2832 2831 2830 2830 2830 2830
2912 2909 2905 2903 2900 2897 2894 2891 2888 2885 2881 2878 2874 2871 2867 2864 2861 2858 2855 2852 2850 2848 2846 2844 2842 2840 2839 2837 2835 2833 2831 2830 2829 2828 2828 2827 2827 2826
Wind_Speed
31 32 34 35 37 38 39 42 45 50 50 47 45 40 39 41 39 35 33 33 32 32 29 29 30 28 28 29 28 28 33 33 27 28 38 33 36 34
32 33 34 36 38 40 42 43 45 47 51 48 45 42 39 38 38 40 38 36 33 32 33 32 31 31 29 29 28 27 27 31 33 29 28 37 39 40
33 35 35 37 39 41 43 45 47 48 51 51 49 47 46 45 42 41 43 43 39 36 34 35 33 33 32 30 29 28 27 27 29 27 28 30 29 32
33 35 37 39 42 44 47 48 49 50 50 53 50 49 47 46 45 45 44 45 46 42 39 36 36 35 35 33 32 31 29 28 27 28 31 27 29 30
37 39 41 43 45 46 46 46 46 46 47 49 47 47 46 46 46 45 46 45 43 43 40 37 34 35 35 35 33 32 31 30 30 29 28 30 33 28
40 42 45 46 48 48 49 47 46 45 45 44 45 44 45 44 44 44 44 43 38 35 36 34 31 32 33 33 31 31 32 32 31 30 30 30 31 32
42 45 46 47 46 45 45 44 45 46 45 45 44 43 42 42 42 38 34 34 33 29 30 29 28 28 29 28 29 29 30 32 33 33 32 32 32 33
46 47 47 47 44 42 42 43 44 44 44 44 43 41 40 37 33 31 32 34 36 29 27 29 25 27 26 26 27 27 28 29 32 33 34 35 35 35
48 48 47 44 42 42 42 44 43 41 41 40 40 37 34 28 29 29 28 30 31 31 34 35 30 30 26 27 25 26 28 28 29 31 34 35 34 33
47 46 44 42 41 43 45 46 45 45 41 37 34 33 31 30 29 29 29 28 28 26 27 31 27 28 25 25 25 26 27 27 27 28 30 32 32 32
45 43 41 41 42 45 45 45 45 43 38 33 30 29 30 29 29 28 28 31 29 26 23 26 25 31 33 30 27 27 27 27 27 26 26 28 28 28
43 40 39 40 41 41 42 42 42 40 40 35 30 30 27 27 27 28 32 32 31 29 21 26 32 31 34 29 26 26 26 24 24 24 23 24 25 25
40 39 39 40 40 40 39 38 38 38 37 33 30 30 30 30 29 29 30 29 30 31 31 36 36 34 33 32 26 22 23 21 22 23 24 23 23 24
39 39 39 40 39 38 36 35 34 34 31 29 27 27 27 27 26 26 26 27 28 32 33 34 34 29 27 25 22 18 18 18 20 20 22 24 23 24
37 38 39 38 36 34 33 32 32 31 27 25 25 25 25 24 24 23 23 23 23 23 24 25 25 23 23 20 16 12 13 13 17 18 18 21 21 21
36 37 36 34 32 31 29 29 28 26 24 23 22 22 22 22 22 23 22 21 20 17 19 18 17 16 15 13 13 10 10 12 14 16 17 18 19 19
37 34 31 29 28 27 26 26 24 22 19 18 18 18 18 17 16 17 16 14 12 9 7 9 11 11 11 11 11 10 10 11 12 13 15 14 16 18
32 30 27 26 25 25 25 23 21 19 18 16 16 16 14 13 12 12 13 12 11 11 9 8 8 8 8 8 10 9 9 10 11 13 15 15 15 17
28 25 23 23 23 23 22 21 20 19 18 17 16 15 14 14 14 13 13 12 11 10 9 8 7 8 9 10 10 10 11 12 12 13 13 14 16 18
22 21 21 21 20 20 20 19 18 17 16 16 16 16 16 15 14 13 12 11 11 9 9 8 7 9 11 12 13 12 13 14 14 14 14 15 16 17
19 19 20 20 19 19 18 16 16 16 16 17 17 16 16 15 14 14 13 13 12 12 12 11 11 12 13 13 13 12 12 13 13 11 10 8 8 9
17 18 18 18 18 16 14 13 14 15 16 17 17 17 17 16 15 15 14 14 14 14 14 13 12 13 13 13 14 14 13 12 11 9 8 7 7 7
16 16 17 16 15 13 13 14 16 18 19 19 19 18 18 17 16 16 15 15 14 14 13 13 13 13 13 14 14 13 12 11 9 8 8 8 8 7
Wind_Direction
305 306 306 306 306 307 307 306 306 308 308 310 309 307 305 302 299 294 289 288 288 288 287 285 287 288 285 282 277 269 271 250 248 243 234 237 242 239
305 305 306 307 307 307 305 305 306 307 304 307 306 305 300 296 294 294 293 289 287 285 285 285 286 287 285 282 277 274 268 261 258 246 240 241 244 241
306 306 308 307 305 305 304 304 304 304 303 305 303 302 299 296 294 292 292 291 288 287 284 283 283 283 284 281 278 272 267 262 255 263 251 237 244 246
307 308 307 305 305 306 306 305 304 304 304 304 305 304 302 301 298 294 290 288 287 285 283 280 280 280 279 279 276 272 267 262 256 251 250 261 243 246
311 309 308 308 307 305 304 304 304 303 301 301 305 304 304 303 300 297 295 291 289 286 281 278 273 272 273 274 273 271 268 263 260 255 249 249 243 252
312 310 309 309 309 309 309 309 308 306 306 304 303 303 302 301 299 299 297 295 296 288 281 276 271 268 268 267 269 267 267 266 262 259 256 251 247 244
311 310 310 310 310 310 309 308 307 306 306 304 304 303 303 301 300 301 296 295 294 297 295 283 270 267 267 271 267 264 261 263 264 263 260 257 253 249
313 312 312 311 310 309 307 308 308 308 307 307 306 305 305 305 304 302 297 290 288 283 286 289 287 278 271 263 262 263 264 262 262 264 263 259 255 254
314 313 313 312 310 309 310 310 309 307 307 307 305 305 308 310 306 302 298 293 290 287 283 285 287 285 276 269 265 261 263 264 263 264 264 262 262 256
313 314 313 312 312 312 310 310 309 309 309 305 301 303 304 305 302 301 299 295 290 286 282 282 283 284 279 280 274 273 270 268 267 264 265 265 262 259
315 315 314 314 314 313 311 309 308 308 306 303 297 294 293 298 294 294 295 296 294 290 280 281 288 288 286 284 281 279 278 277 276 270 262 260 259 257
314 314 313 312 313 311 310 310 310 310 306 305 298 294 292 296 296 291 289 293 293 276 275 286 295 294 290 286 283 279 276 273 270 268 260 255 256 257
315 315 316 316 315 315 314 313 310 306 305 303 301 298 297 293 290 290 292 288 282 282 278 288 292 291 289 290 286 282 278 271 265 260 260 257 252 250
317 318 318 318 319 319 317 316 311 307 304 304 304 300 300 300 298 296 295 291 287 285 284 287 290 292 289 287 290 283 274 266 260 255 255 256 253 249
317 320 322 323 323 323 323 321 317 314 310 306 306 304 305 307 306 304 300 297 292 293 291 288 290 290 290 294 293 279 269 258 261 258 252 252 253 252
320 325 326 327 327 328 329 327 325 324 317 311 312 311 311 311 310 306 305 302 301 298 291 292 291 293 294 297 297 299 284 275 264 264 258 253 252 249
326 326 326 328 331 333 337 340 338 335 334 329 326 326 328 327 325 321 322 325 329 325 313 297 293 294 297 301 302 303 289 278 270 268 266 256 253 249
326 326 328 331 334 338 345 350 349 352 352 353 352 352 353 350 352 345 344 344 341 334 329 319 310 305 303 303 302 302 300 291 282 276 271 264 252 249
327 327 329 333 336 341 344 348 354 357 0 1 0 358 355 351 347 344 343 343 345 344 340 332 327 320 319 317 308 303 303 297 289 281 274 267 258 254
326 326 332 335 337 338 340 346 349 353 358 359 0 1 1 359 357 354 350 347 345 344 338 328 321 319 316 314 309 305 304 304 299 291 280 273 269 262
328 329 333 337 339 337 343 350 357 1 3 5 3 1 360 359 355 352 350 345 340 336 334 325 315 312 310 312 310 306 306 306 305 298 288 284 277 272
327 331 336 338 338 342 348 353 356 356 354 350 347 346 344 341 340 338 337 335 332 330 330 326 319 315 313 312 311 310 309 312 311 302 292 289 289 282
328 332 337 337 334 340 344 347 346 342 340 338 336 336 336 336 334 332 328 326 324 324 323 320 317 316 315 313 314 315 317 319 316 313 302 295 292 288